GW1491 Weather Reports


time (UTC)temp
F
wind
direction
speed
knots
gust
knots
rain 1hr
in
rain 24hr
in
rain mn
in
humidity
%
barometer
mb
20260510180317 67 98 3.5 3.5 0.00 0.00 0.00 63 1016.9
20260510175741 67 328 2.6 6.1 0.00 0.00 0.00 63 1016.9
20260510175152 68 327 3.5 5.2 0.00 0.00 0.00 63 1016.9
20260510173950 66 109 3.5 6.1 0.00 0.00 0.00 64 1016.9
20260510173326 68 62 0.9 1.7 0.00 0.00 0.00 64 1016.5
20260510172724 66 63 0.9 7.0 0.00 0.00 0.00 64 1016.9
20260510172111 64 99 0.9 6.1 0.00 0.00 0.00 64 1016.9
20260510170336 65 20 5.2 6.1 0.00 0.00 0.00 67 1016.9
20260510165751 65 55 1.7 3.5 0.00 0.00 0.00 70 1017.2
20260510164545 64 344 1.7 6.1 0.00 0.00 0.00 74 1017.2
20260510163944 63 330 0.9 2.6 0.00 0.00 0.00 76 1017.2
20260510162725 61 46 1.7 5.2 0.00 0.00 0.00 79 1016.9
20260510161529 60 33 1.7 5.2 0.00 0.00 0.00 84 1016.9
20260510160950 60 42 0.9 2.6 0.00 0.00 0.00 86 1016.5
20260510155736 59 62 2.6 3.5 0.00 0.00 0.00 90 1016.9
20260510155150 60 64 2.6 3.5 0.00 0.00 0.00 92 1016.5
20260510154523 59 59 3.5 3.5 0.00 0.00 0.00 93 1016.5
20260510153949 59 14 0.9 1.7 0.00 0.00 0.00 94 1016.2
20260510153322 58 47 1.7 3.5 0.00 0.00 0.00 95 1016.2
20260510152734 58 33 1.7 2.6 0.00 0.00 0.00 95 1015.9
20260510152149 58 35 3.5 5.2 0.00 0.00 0.00 96 1015.9
20260510151535 58 18 0.9 3.5 0.00 0.00 0.00 96 1015.9
20260510150914 58 34 2.6 2.6 0.00 0.00 0.00 96 1015.5
20260510150339 57 55 2.6 3.5 0.00 0.00 0.00 96 1015.5
20260510145717 58 26 1.7 5.2 0.00 0.00 0.00 96 1015.5
20260510145138 57 43 0.0 2.6 0.00 0.00 0.00 96 1015.5
20260510144510 57 38 1.7 1.7 0.00 0.00 0.00 95 1015.5
20260510143927 58 13 0.9 2.6 0.00 0.00 0.00 95 1015.9
20260510143335 58 33 1.7 1.7 0.00 0.00 0.00 94 1015.9
20260510142713 58 41 0.9 1.7 0.00 0.00 0.00 94 1015.9
20260510142128 58 12 0.9 0.9 0.00 0.00 0.00 94 1015.9
20260510140929 58 293 0.9 0.9 0.00 0.00 0.00 92 1016.2
20260510135715 58 328 1.7 2.6 0.00 0.00 0.00 90 1015.5
20260510135116 58 44 0.0 0.0 0.00 0.00 0.00 90 1015.5
20260510134511 59 49 1.7 2.6 0.00 0.00 0.00 89 1015.2
20260510133348 58 19 0.9 3.5 0.00 0.00 0.00 90 1015.2
20260510132749 59 58 1.7 3.5 0.00 0.00 0.00 90 1015.2
20260510131517 58 18 0.9 1.7 0.00 0.00 0.00 92 1014.9
20260510130920 58 13 0.9 0.9 0.00 0.00 0.00 92 1015.2
20260510130331 57 358 0.9 1.7 0.00 0.00 0.00 93 1015.2
20260510125751 57 322 0.9 1.7 0.00 0.00 0.00 93 1015.2
20260510125144 57 341 1.7 3.5 0.00 0.00 0.00 93 1014.9
20260510123308 57 35 0.9 1.7 0.00 0.00 0.00 94 1014.9
20260510122730 57 304 0.0 0.9 0.00 0.00 0.00 94 1014.5
20260510122134 57 273 3.5 3.5 0.00 0.00 0.00 95 1014.5
20260510121511 57 316 0.9 1.7 0.00 0.00 0.00 95 1014.5
20260510120949 57 304 1.7 2.6 0.00 0.00 0.00 95 1014.5
20260510115743 56 285 0.9 0.9 0.00 0.00 0.00 95 1014.2
20260510114518 56 293 1.7 2.6 0.00 0.00 0.00 96 1014.2
20260510113914 56 307 0.9 2.6 0.00 0.00 0.00 96 1014.2
20260510112710 56 267 0.9 2.6 0.00 0.00 0.00 96 1013.8
20260510112131 56 279 0.9 1.7 0.00 0.00 0.00 96 1013.5
20260510111532 56 260 1.7 3.5 0.00 0.00 0.00 96 1013.5
20260510110933 56 256 0.9 3.5 0.00 0.00 0.00 96 1013.8
20260510110312 56 276 1.7 2.6 0.00 0.00 0.00 96 1013.5
20260510105747 56 269 1.7 2.6 0.00 0.00 0.00 97 1013.2
20260510105143 55 283 0.9 1.7 0.00 0.00 0.00 97 1012.8
20260510103935 55 294 0.9 2.6 0.00 0.00 0.00 97 1012.5
20260510103324 55 280 1.7 2.6 0.00 0.00 0.00 97 1012.5
20260510102717 55 273 2.6 2.6 0.00 0.00 0.00 97 1012.5
20260510102142 55 300 1.7 2.6 0.00 0.00 0.00 96 1012.5
20260510101511 55 272 0.9 0.9 0.00 0.00 0.00 96 1012.5
20260510100351 55 279 0.0 0.9 0.00 0.00 0.00 96 1012.1
20260510095710 55 283 0.9 0.9 0.00 0.00 0.00 96 1012.1
20260510095139 55 277 0.9 0.9 0.00 0.00 0.00 95 1012.1
20260510094539 55 289 0.9 1.7 0.00 0.00 0.00 95 1012.1
20260510093908 55 232 0.0 1.7 0.00 0.00 0.00 95 1011.8
20260510093327 56 315 0.9 1.7 0.00 0.00 0.00 95 1011.8
20260510092725 56 280 0.9 0.9 0.00 0.00 0.00 95 1011.8
20260510092129 56 225 0.0 1.7 0.00 0.00 0.00 94 1011.8
20260510091537 56 243 0.9 0.9 0.00 0.00 0.00 94 1011.5
20260510090909 56 292 0.9 2.6 0.00 0.00 0.00 94 1011.5
20260510090341 56 289 1.7 1.7 0.00 0.00 0.00 94 1011.5
20260510085716 56 261 1.7 1.7 0.00 0.00 0.00 94 1011.1
20260510083948 56 292 0.9 1.7 0.00 0.00 0.00 93 1011.1
20260510083352 56 272 0.9 0.9 0.00 0.00 0.00 93 1011.1
20260510082744 57 264 0.9 0.9 0.00 0.00 0.00 92 1011.5
20260510082119 57 230 0.9 0.9 0.00 0.00 0.00 92 1011.1
20260510081549 57 272 0.0 0.9 0.00 0.00 0.00 92 1011.5
20260510080918 57 212 0.9 1.7 0.00 0.00 0.00 92 1011.1
20260510080327 57 285 0.9 0.9 0.00 0.00 0.00 91 1011.1
20260510075750 58 238 0.9 2.6 0.00 0.00 0.00 91 1011.5
20260510074542 58 287 0.9 0.9 0.00 0.00 0.00 91 1011.1
20260510073942 58 246 0.9 1.7 0.00 0.00 0.00 91 1011.1
20260510073347 58 252 0.9 1.7 0.00 0.00 0.00 90 1011.5
20260510072734 58 250 0.9 3.5 0.00 0.00 0.00 90 1011.1
20260510072126 58 277 0.9 1.7 0.00 0.00 0.00 90 1011.5
20260510071546 58 279 0.0 0.9 0.00 0.00 0.00 90 1011.1
20260510070925 58 318 0.0 0.9 0.00 0.00 0.00 90 1011.1
20260510070312 58 271 1.7 2.6 0.00 0.00 0.00 90 1011.1
20260510065734 58 354 1.7 5.2 0.00 0.00 0.00 90 1011.1
20260510065141 58 262 0.9 2.6 0.00 0.00 0.00 90 1011.1
20260510063923 58 268 0.0 1.7 0.00 0.00 0.00 89 1011.1
20260510063330 58 247 0.9 1.7 0.00 0.00 0.00 89 1011.1
20260510062709 58 274 2.6 3.5 0.00 0.00 0.00 89 1011.1
20260510062146 58 255 0.0 2.6 0.00 0.00 0.00 89 1011.1
20260510061534 59 235 1.7 5.2 0.00 0.00 0.00 88 1011.1
20260510060949 59 282 1.7 3.5 0.00 0.00 0.00 88 1011.1
20260510060341 59 295 4.3 5.2 0.00 0.00 0.00 88 1011.1
20260510055725 59 271 2.6 3.5 0.00 0.00 0.00 88 1011.1
20260510055118 59 281 0.9 1.7 0.00 0.00 0.00 88 1011.1
20260510054538 59 269 1.7 3.5 0.00 0.00 0.00 88 1011.1
20260510053314 59 287 2.6 3.5 0.00 0.00 0.00 87 1011.1
20260510052149 60 284 1.7 3.5 0.00 0.00 0.00 86 1011.1
20260510051548 60 231 1.7 2.6 0.00 0.00 0.00 86 1011.1
20260510050912 60 289 1.7 7.8 0.00 0.00 0.00 86 1011.1
20260510050332 60 262 1.7 3.5 0.00 0.00 0.00 86 1011.1
20260510045721 60 274 3.5 3.5 0.00 0.00 0.00 86 1011.1
20260510045110 60 210 2.6 3.5 0.00 0.00 0.00 85 1011.1
20260510043931 60 216 1.7 2.6 0.00 0.00 0.00 85 1011.1
20260510043338 60 132 2.6 5.2 0.00 0.00 0.00 84 1010.8
20260510042711 60 273 1.7 5.2 0.00 0.00 0.00 84 1010.8
20260510042145 60 286 1.7 3.5 0.00 0.00 0.00 84 1010.8
20260510041533 60 302 2.6 5.2 0.00 0.00 0.00 84 1011.1
20260510040924 60 180 1.7 6.1 0.00 0.00 0.00 84 1010.8
20260510040343 60 263 0.9 1.7 0.00 0.00 0.00 84 1010.8
20260510035747 60 284 4.3 6.1 0.00 0.00 0.28 84 1011.1
20260510035123 60 149 0.9 2.6 0.00 0.00 0.28 84 1011.1
20260510034541 60 177 0.9 2.6 0.00 0.00 0.28 83 1011.1
20260510033910 60 298 1.7 3.5 0.00 0.00 0.28 83 1010.8
20260510033316 60 244 1.7 6.1 0.00 0.00 0.28 83 1010.8
20260510032752 60 228 1.7 2.6 0.00 0.00 0.28 83 1010.8
20260510032147 60 202 1.7 7.0 0.00 0.00 0.28 83 1010.8
20260510031524 60 145 2.6 3.5 0.00 0.00 0.28 83 1010.4
20260510030919 60 263 0.9 1.7 0.00 0.00 0.28 83 1010.8
20260510030328 60 270 0.9 2.6 0.00 0.00 0.28 83 1010.4
20260510025732 60 275 1.7 3.5 0.00 0.00 0.28 82 1010.4
20260510025123 60 188 2.6 3.5 0.00 0.00 0.28 82 1010.4
20260510023940 60 217 0.0 0.9 0.00 0.00 0.28 82 1010.4
20260510022739 60 265 0.9 1.7 0.00 0.00 0.28 82 1010.4
20260510021510 60 257 1.7 2.6 0.00 0.00 0.28 81 1010.4
20260510020952 60 188 0.9 0.9 0.00 0.00 0.28 81 1010.4
20260510015740 61 219 0.0 0.9 0.00 0.00 0.28 79 1010.4
20260510015143 61 171 0.0 1.7 0.00 0.00 0.28 78 1010.1
20260510014511 61 198 0.9 1.7 0.00 0.00 0.28 77 1010.1
20260510013946 62 252 1.7 2.6 0.00 0.00 0.28 77 1009.8
20260510012725 62 181 0.9 1.7 0.00 0.00 0.28 75 1009.8
20260510012131 63 181 0.9 1.7 0.00 0.00 0.28 75 1009.4
20260510011556 63 236 0.9 2.6 0.00 0.00 0.28 74 1009.4
20260510010951 63 220 0.9 0.9 0.00 0.00 0.28 74 1009.4
20260510010348 63 290 1.7 2.6 0.00 0.00 0.28 74 1009.4
20260510005143 63 224 0.9 1.7 0.00 0.00 0.28 73 1009.1
20260510004550 64 178 0.9 0.9 0.00 0.00 0.28 72 1009.1
20260510003307 64 192 0.9 1.7 0.00 0.00 0.28 71 1009.1
20260510002716 65 199 0.0 0.9 0.00 0.00 0.28 70 1008.8
20260510001511 66 197 0.9 1.7 0.00 0.00 0.28 68 1008.8
20260510000943 66 164 0.9 1.7 0.00 0.00 0.28 67 1008.8
20260510000349 67 222 0.0 2.6 0.00 0.00 0.28 66 1008.8
20260509235710 67 191 1.7 2.6 0.00 0.00 0.28 65 1008.8
20260509235126 68 267 0.9 2.6 0.00 0.00 0.28 64 1008.8
20260509234543 68 242 0.9 3.5 0.00 0.00 0.28 63 1008.8
20260509233949 69 334 3.5 3.5 0.00 0.00 0.28 62 1008.8
20260509233339 69 269 4.3 7.0 0.00 0.00 0.28 62 1008.8
20260509232130 70 251 0.9 5.2 0.00 0.00 0.28 61 1008.4
20260509231509 70 274 0.9 1.7 0.00 0.00 0.28 61 1008.8
20260509230951 69 248 1.7 7.0 0.00 0.00 0.28 60 1008.4
20260509230332 70 251 0.0 6.1 0.00 0.00 0.28 60 1008.4
20260509225146 70 210 2.6 3.5 0.00 0.00 0.28 59 1008.4
20260509224535 70 152 1.7 3.5 0.00 0.00 0.28 61 1008.4
20260509223928 70 146 5.2 6.1 0.00 0.00 0.28 60 1008.8
20260509223343 70 39 1.7 6.1 0.00 0.00 0.28 60 1008.4
20260509222130 71 320 3.5 5.2 0.00 0.00 0.28 61 1008.8
20260509220918 70 229 3.5 8.7 0.00 0.00 0.28 61 1008.8
20260509220325 70 176 3.5 7.0 0.00 0.00 0.28 61 1008.8
20260509215723 70 242 4.3 6.1 0.00 0.00 0.28 60 1009.1
20260509215134 70 239 2.6 10.4 0.00 0.00 0.28 60 1009.1
20260509214520 70 226 7.0 13.9 0.00 0.00 0.28 60 1008.8
20260509213335 71 220 1.7 5.2 0.00 0.00 0.28 61 1008.8
20260509212739 70 247 1.7 5.2 0.00 0.00 0.28 60 1008.8
20260509212145 70 227 1.7 3.5 0.00 0.00 0.28 60 1008.8
20260509211542 70 262 1.7 6.1 0.00 0.00 0.28 61 1008.8
20260509210931 72 249 4.3 7.0 0.00 0.00 0.28 60 1008.8
20260509210318 71 236 1.7 5.2 0.00 0.00 0.28 60 1009.1
20260509205747 70 180 1.7 9.6 0.00 0.00 0.28 61 1008.8
20260509205134 71 252 1.7 2.6 0.00 0.00 0.28 61 1009.1
20260509204537 70 278 6.1 9.6 0.00 0.00 0.28 60 1009.1
20260509203950 70 181 4.3 6.1 0.00 0.00 0.28 61 1009.1
20260509203321 69 254 0.9 8.7 0.00 0.00 0.28 63 1009.1
20260509202753 70 241 2.6 5.2 0.00 0.00 0.28 62 1009.1
20260509202126 70 308 3.5 8.7 0.00 0.00 0.28 61 1009.1
20260509201532 70 268 3.5 7.0 0.00 0.00 0.28 64 1009.1
20260509200939 68 236 1.7 6.1 0.00 0.00 0.28 63 1009.4
20260509200309 69 274 1.7 7.0 0.00 0.00 0.28 64 1009.4
20260509195125 69 123 2.6 5.2 0.00 0.00 0.28 63 1009.8
20260509193915 69 225 3.5 7.0 0.00 0.00 0.28 63 1009.8
20260509193337 70 253 7.0 10.4 0.00 0.00 0.28 62 1009.8
20260509192748 69 219 1.7 3.5 0.00 0.00 0.28 65 1009.8
20260509191528 66 247 1.7 2.6 0.00 0.00 0.28 67 1010.1
20260509190313 68 262 3.5 6.1 0.00 0.00 0.28 65 1010.1
20260509185750 68 332 0.0 1.7 0.00 0.00 0.28 72 1010.1
20260509185114 66 223 2.6 5.2 0.00 0.00 0.28 68 1010.1
20260509184531 67 242 1.7 6.1 0.00 0.00 0.28 70 1010.1
20260509183936 66 271 1.7 3.5 0.00 0.00 0.28 72 1010.1
20260509183343 66 353 0.9 5.2 0.00 0.00 0.28 71 1010.1
20260509182727 66 287 1.7 2.6 0.00 0.00 0.28 71 1010.1
20260509182153 66 328 3.5 6.1 0.00 0.00 0.28 70 1010.1
20260509181515 65 183 2.6 7.0 0.00 0.00 0.28 71 1010.4
20260509180942 64 293 4.3 6.1 0.00 0.00 0.28 72 1010.4